Location: ???????
(55.4362°N, 38.1183°E)
Time: 15:08:38
(UTC+00:00)

Oscar 11 - Pass Details

Date: 05 December 2021
Orbit: 611 x 625 km, 97.6° (Epoch: 25 January)

Event Time Altitude Azimuth Distance (km) Brightness Sun altitude
Rises 01:56:41 0° 23° (NNE) 2,923 10.8 -29.7°
Reaches altitude 10° 01:59:21 10° 39° (NE) 2,008 10.1 -29.4°
Maximum altitude 02:02:44 22° 90° (E) 1,389 9.5 -28.9°
Drops below altitude 10° 02:06:05 10° 141° (SE) 1,990 10.1 -28.4°
Sets 02:08:42 0° 157° (SSE) 2,887 10.8 -28.0°
